OCN2WK LDSP-EDDF

Flight info

Callsign OCN2WK
Flight time 1h 28m
Altitude 34000
Route ZDA DCT NIPEL DCT SIMBA DCT AKINI T161 DEBHI DEBHI1B
Aircraft A320/M-SDE3FGHIRWY/LB1

Departure

Time 2026-05-05 14:50
Airport Split Saint Jerome Airport (LDSP)

Arrival

Time 2026-05-05 16:18
Airport Frankfurt Main Airport (EDDF)
Time Latitude Longitude Altitude Speed Heading
2026-05-05 14:36 43.53760 16.29941 70 ft 0 kts 114°
2026-05-05 14:44 43.53761 16.29936 77 ft 3 kts 114°
2026-05-05 14:44 43.53772 16.29903 73 ft 4 kts 124°
2026-05-05 14:44 43.53790 16.29880 80 ft 4 kts 170°
2026-05-05 14:44 43.53809 16.29885 81 ft 2 kts 233°
2026-05-05 14:45 43.53812 16.29891 81 ft 1 kts 233°
2026-05-05 14:47 43.53804 16.29878 84 ft 9 kts 232°
2026-05-05 14:47 43.53761 16.29801 85 ft 9 kts 231°
2026-05-05 14:47 43.53717 16.29721 87 ft 15 kts 233°
2026-05-05 14:47 43.53694 16.29573 87 ft 18 kts 272°
2026-05-05 14:48 43.53664 16.29389 87 ft 22 kts 242°
2026-05-05 14:48 43.53564 16.29203 82 ft 27 kts 232°
2026-05-05 14:48 43.53440 16.28984 83 ft 30 kts 232°
2026-05-05 14:48 43.53312 16.28757 88 ft 29 kts 232°
2026-05-05 14:49 43.53204 16.28608 90 ft 11 kts 225°
2026-05-05 14:49 43.53207 16.28574 92 ft 1 kts 342°
2026-05-05 14:49 43.53230 16.28606 89 ft 12 kts 50°
2026-05-05 14:49 43.53422 16.28953 84 ft 86 kts 52°
2026-05-05 14:50 43.53923 16.29856 87 ft 148 kts 54°
2026-05-05 14:50 43.54513 16.31085 695 ft 155 kts 70°
2026-05-05 14:50 43.54717 16.32557 1444 ft 163 kts 98°
2026-05-05 14:50 43.54407 16.34152 2082 ft 180 kts 114°
2026-05-05 14:51 43.53782 16.35659 2913 ft 184 kts 130°
2026-05-05 14:51 43.52799 16.36825 3684 ft 190 kts 150°
2026-05-05 14:51 43.51628 16.37687 4533 ft 191 kts 153°
2026-05-05 14:51 43.50441 16.38546 5295 ft 199 kts 154°
2026-05-05 14:52 43.49229 16.39424 6059 ft 195 kts 153°
2026-05-05 14:52 43.48028 16.40299 6695 ft 196 kts 154°
2026-05-05 14:52 43.46757 16.40976 7239 ft 199 kts 174°
2026-05-05 14:52 43.45398 16.40618 7721 ft 208 kts 207°
2026-05-05 14:53 43.44317 16.39113 7968 ft 238 kts 238°
2026-05-05 14:53 43.43905 16.36795 8327 ft 269 kts 272°
2026-05-05 14:53 43.44593 16.34333 8955 ft 288 kts 305°
2026-05-05 14:53 43.45968 16.32319 9990 ft 288 kts 313°
2026-05-05 14:54 43.47406 16.30315 10538 ft 306 kts 311°
2026-05-05 14:54 43.48921 16.28117 10780 ft 329 kts 311°
2026-05-05 14:54 43.50527 16.25765 11314 ft 340 kts 310°
2026-05-05 14:54 43.52148 16.23368 12092 ft 344 kts 310°
2026-05-05 14:55 43.53782 16.20938 12876 ft 347 kts 311°
2026-05-05 14:55 43.55434 16.18480 13593 ft 352 kts 310°
2026-05-05 14:55 43.57102 16.15989 14315 ft 355 kts 310°
2026-05-05 14:55 43.58782 16.13460 15002 ft 358 kts 310°
2026-05-05 14:56 43.60472 16.10925 15670 ft 361 kts 310°
2026-05-05 14:56 43.62184 16.08356 16316 ft 365 kts 310°
2026-05-05 14:56 43.62250 16.08257 16343 ft 365 kts 310°
2026-05-05 14:57 43.63454 16.06443 16772 ft 368 kts 310°
2026-05-05 14:57 43.65199 16.03826 17392 ft 372 kts 310°
2026-05-05 14:57 43.66961 16.01175 18035 ft 376 kts 310°
2026-05-05 14:58 43.68741 15.98500 18644 ft 380 kts 310°
2026-05-05 14:58 43.70535 15.95800 19198 ft 383 kts 310°
2026-05-05 14:58 43.72336 15.93068 19758 ft 386 kts 310°
2026-05-05 14:58 43.74152 15.90329 20332 ft 388 kts 310°
2026-05-05 14:59 43.75989 15.87567 20892 ft 391 kts 310°
2026-05-05 14:59 43.77837 15.84785 21433 ft 394 kts 310°
2026-05-05 14:59 43.79694 15.81990 21969 ft 396 kts 310°
2026-05-05 14:59 43.81558 15.79157 22496 ft 399 kts 309°
2026-05-05 15:00 43.83435 15.76304 23018 ft 402 kts 310°
2026-05-05 15:00 43.84681 15.74406 23362 ft 404 kts 309°
2026-05-05 15:00 43.87224 15.70534 23983 ft 407 kts 310°
2026-05-05 15:00 43.89136 15.67628 24429 ft 410 kts 310°
2026-05-05 15:01 43.91062 15.64698 24882 ft 411 kts 309°
2026-05-05 15:01 43.92988 15.61761 25330 ft 413 kts 309°
2026-05-05 15:01 43.94928 15.58804 25742 ft 415 kts 309°
2026-05-05 15:01 43.96879 15.55826 26166 ft 418 kts 309°
2026-05-05 15:02 43.98831 15.52833 26584 ft 420 kts 309°
2026-05-05 15:02 44.00801 15.49826 26979 ft 422 kts 310°
2026-05-05 15:02 44.02780 15.46803 27388 ft 424 kts 309°
2026-05-05 15:02 44.04760 15.43761 27781 ft 426 kts 309°
2026-05-05 15:03 44.06754 15.40697 28165 ft 428 kts 310°
2026-05-05 15:03 44.08918 15.37840 28532 ft 433 kts 319°
2026-05-05 15:03 44.11451 15.35521 28896 ft 439 kts 329°
2026-05-05 15:03 44.14279 15.33837 29266 ft 444 kts 336°
2026-05-05 15:04 44.17187 15.32341 29618 ft 447 kts 335°
2026-05-05 15:04 44.20096 15.30792 29932 ft 449 kts 335°
2026-05-05 15:04 44.23010 15.29237 30359 ft 448 kts 335°
2026-05-05 15:04 44.25922 15.27685 30787 ft 446 kts 335°
2026-05-05 15:05 44.30725 15.25126 31486 ft 443 kts 335°
2026-05-05 15:05 44.34564 15.23054 32076 ft 441 kts 335°
2026-05-05 15:05 44.36456 15.22037 32384 ft 440 kts 335°
2026-05-05 15:06 44.39310 15.20506 32827 ft 438 kts 335°
2026-05-05 15:06 44.42148 15.18989 33285 ft 435 kts 334°
2026-05-05 15:06 44.44967 15.17468 33742 ft 433 kts 334°
2026-05-05 15:06 44.47775 15.15944 34047 ft 433 kts 334°
2026-05-05 15:07 44.50589 15.14428 34077 ft 434 kts 334°
2026-05-05 15:07 44.56232 15.11387 34073 ft 434 kts 334°
2026-05-05 15:08 44.61855 15.08344 34066 ft 432 kts 334°
2026-05-05 15:08 44.67459 15.05305 34070 ft 432 kts 334°
2026-05-05 15:09 44.73063 15.02252 34065 ft 432 kts 334°
2026-05-05 15:09 44.78663 14.99204 34066 ft 431 kts 334°
2026-05-05 15:10 44.84259 14.96150 34064 ft 431 kts 334°
2026-05-05 15:10 44.89857 14.93092 34051 ft 431 kts 334°
2026-05-05 15:11 44.95443 14.90015 34040 ft 431 kts 334°
2026-05-05 15:11 45.01037 14.86956 34054 ft 431 kts 334°
2026-05-05 15:12 45.06627 14.83875 34049 ft 431 kts 334°
2026-05-05 15:12 45.12222 14.80786 34051 ft 432 kts 334°
2026-05-05 15:13 45.17817 14.77696 34052 ft 432 kts 334°
2026-05-05 15:13 45.23454 14.74576 34061 ft 432 kts 334°
2026-05-05 15:14 45.29013 14.71495 34053 ft 432 kts 334°
2026-05-05 15:14 45.34606 14.68369 34042 ft 432 kts 334°
2026-05-05 15:15 45.40205 14.65243 34032 ft 433 kts 334°
2026-05-05 15:15 45.45815 14.62120 34019 ft 433 kts 334°
2026-05-05 15:16 45.51435 14.58966 34013 ft 434 kts 335°
2026-05-05 15:16 45.57057 14.55818 34017 ft 434 kts 334°
2026-05-05 15:17 45.62686 14.52648 34014 ft 435 kts 334°
2026-05-05 15:17 45.68317 14.49473 34016 ft 435 kts 334°
2026-05-05 15:18 45.73961 14.46297 34010 ft 436 kts 334°
2026-05-05 15:18 45.79643 14.43086 34012 ft 436 kts 334°
2026-05-05 15:19 45.85251 14.39904 34012 ft 436 kts 334°
2026-05-05 15:19 45.90883 14.36694 34008 ft 436 kts 334°
2026-05-05 15:20 45.96521 14.33483 34024 ft 436 kts 334°
2026-05-05 15:20 46.02159 14.30255 34018 ft 436 kts 334°
2026-05-05 15:21 46.07835 14.26998 34031 ft 436 kts 334°
2026-05-05 15:21 46.13439 14.23782 34020 ft 437 kts 334°
2026-05-05 15:22 46.19130 14.20527 34010 ft 437 kts 334°
2026-05-05 15:22 46.24738 14.17289 34008 ft 437 kts 334°
2026-05-05 15:23 46.30391 14.14026 34008 ft 437 kts 334°
2026-05-05 15:23 46.36086 14.10737 33988 ft 438 kts 334°
2026-05-05 15:24 46.41745 14.07453 33966 ft 439 kts 334°
2026-05-05 15:24 46.47375 14.04164 33955 ft 440 kts 334°
2026-05-05 15:25 46.53103 14.00909 33963 ft 440 kts 335°
2026-05-05 15:25 46.58783 13.97713 33957 ft 441 kts 335°
2026-05-05 15:26 46.64539 13.94450 33940 ft 441 kts 335°
2026-05-05 15:26 46.70258 13.91203 33933 ft 441 kts 335°
2026-05-05 15:27 46.75976 13.87939 33944 ft 442 kts 335°
2026-05-05 15:27 46.81717 13.84673 33910 ft 443 kts 334°
2026-05-05 15:28 46.87460 13.81378 33913 ft 444 kts 335°
2026-05-05 15:28 46.93228 13.78095 33905 ft 445 kts 334°
2026-05-05 15:29 46.98992 13.74764 33904 ft 445 kts 335°
2026-05-05 15:29 47.04759 13.71437 33902 ft 445 kts 335°
2026-05-05 15:30 47.10520 13.68112 33892 ft 445 kts 334°
2026-05-05 15:30 47.16286 13.64782 33867 ft 446 kts 334°
2026-05-05 15:31 47.22069 13.61437 33857 ft 447 kts 335°
2026-05-05 15:31 47.27839 13.58075 33836 ft 447 kts 335°
2026-05-05 15:32 47.33631 13.54702 33807 ft 447 kts 335°
2026-05-05 15:32 47.39415 13.51318 33811 ft 448 kts 335°
2026-05-05 15:33 47.45204 13.47928 33803 ft 448 kts 335°
2026-05-05 15:33 47.51014 13.44528 33788 ft 449 kts 335°
2026-05-05 15:34 47.56826 13.41110 33772 ft 450 kts 334°
2026-05-05 15:34 47.62648 13.37680 33761 ft 450 kts 334°
2026-05-05 15:35 47.68457 13.34237 33769 ft 451 kts 335°
2026-05-05 15:35 47.74294 13.30782 33751 ft 452 kts 335°
2026-05-05 15:36 47.80125 13.27319 33726 ft 452 kts 335°
2026-05-05 15:36 47.85973 13.23834 33734 ft 453 kts 335°
2026-05-05 15:37 47.91814 13.20352 33738 ft 454 kts 335°
2026-05-05 15:37 47.97686 13.16845 33725 ft 455 kts 335°
2026-05-05 15:38 48.03560 13.13328 33730 ft 456 kts 334°
2026-05-05 15:38 48.09364 13.09820 33736 ft 457 kts 335°
2026-05-05 15:39 48.15250 13.06279 33737 ft 457 kts 334°
2026-05-05 15:39 48.20267 13.03136 33754 ft 454 kts 329°
2026-05-05 15:39 48.22482 13.01101 33730 ft 445 kts 318°
2026-05-05 15:40 48.24985 12.98802 33607 ft 444 kts 331°
2026-05-05 15:40 48.27392 12.96647 33944 ft 434 kts 316°
2026-05-05 15:40 48.29375 12.93273 33831 ft 431 kts 295°
2026-05-05 15:41 48.32478 12.85495 33757 ft 445 kts 307°
2026-05-05 15:41 48.36601 12.78518 33755 ft 447 kts 307°
2026-05-05 15:42 48.40730 12.71513 33754 ft 448 kts 307°
2026-05-05 15:42 48.44854 12.64486 33753 ft 448 kts 307°
2026-05-05 15:43 48.48965 12.57433 33745 ft 448 kts 307°
2026-05-05 15:43 48.53074 12.50370 33746 ft 448 kts 307°
2026-05-05 15:44 48.56512 12.44453 33743 ft 447 kts 307°
2026-05-05 15:44 48.60606 12.37372 33744 ft 447 kts 307°
2026-05-05 15:45 48.64702 12.30291 33746 ft 447 kts 307°
2026-05-05 15:45 48.68782 12.23183 33756 ft 448 kts 307°
2026-05-05 15:46 48.72780 12.15953 33724 ft 446 kts 300°
2026-05-05 15:46 48.75424 12.07587 33734 ft 437 kts 281°
2026-05-05 15:47 48.76486 11.98564 33752 ft 435 kts 275°
2026-05-05 15:47 48.77460 11.89504 33770 ft 436 kts 276°
2026-05-05 15:48 48.78428 11.80417 33792 ft 437 kts 275°
2026-05-05 15:48 48.79383 11.71318 33791 ft 437 kts 275°
2026-05-05 15:49 48.80338 11.62259 33793 ft 437 kts 275°
2026-05-05 15:49 48.81286 11.53151 33794 ft 437 kts 275°
2026-05-05 15:50 48.82229 11.44032 33791 ft 438 kts 275°
2026-05-05 15:50 48.83149 11.34889 33794 ft 439 kts 274°
2026-05-05 15:51 48.84488 11.25814 33788 ft 447 kts 287°
2026-05-05 15:51 48.87703 11.17655 33789 ft 459 kts 308°
2026-05-05 15:52 48.92361 11.10932 33799 ft 463 kts 314°
2026-05-05 15:52 48.97148 11.04278 33803 ft 463 kts 314°
2026-05-05 15:53 49.01864 10.97663 33792 ft 464 kts 314°
2026-05-05 15:53 49.06644 10.90929 33819 ft 465 kts 314°
2026-05-05 15:54 49.11395 10.84242 33817 ft 465 kts 314°
2026-05-05 15:54 49.16110 10.77553 33846 ft 466 kts 314°
2026-05-05 15:55 49.20857 10.70735 33513 ft 464 kts 311°
2026-05-05 15:55 49.23074 10.67205 32309 ft 472 kts 310°
2026-05-05 15:55 49.25413 10.63479 30914 ft 486 kts 311°
2026-05-05 15:55 49.27787 10.59724 29824 ft 492 kts 312°
2026-05-05 15:56 49.30141 10.56025 28552 ft 482 kts 312°
2026-05-05 15:56 49.32462 10.52349 27140 ft 476 kts 311°
2026-05-05 15:56 49.34748 10.48725 25897 ft 468 kts 311°
2026-05-05 15:56 49.36807 10.44995 25128 ft 448 kts 303°
2026-05-05 15:57 49.38556 10.41221 24823 ft 421 kts 302°
2026-05-05 15:57 49.40207 10.37609 24168 ft 408 kts 302°
2026-05-05 15:57 49.41815 10.34098 23620 ft 394 kts 302°
2026-05-05 15:57 49.43365 10.30696 23003 ft 384 kts 302°
2026-05-05 15:58 49.44885 10.27345 22747 ft 380 kts 302°
2026-05-05 15:58 49.46388 10.24025 22518 ft 377 kts 302°
2026-05-05 15:58 49.47894 10.20723 22381 ft 376 kts 302°
2026-05-05 15:58 49.49391 10.17429 22298 ft 376 kts 302°
2026-05-05 15:59 49.50885 10.14131 22135 ft 375 kts 302°
2026-05-05 15:59 49.53788 10.07690 21610 ft 372 kts 302°
2026-05-05 15:59 49.55271 10.04385 21363 ft 369 kts 302°
2026-05-05 16:00 49.56731 10.01138 21105 ft 380 kts 302°
2026-05-05 16:00 49.58238 9.97804 20845 ft 377 kts 302°
2026-05-05 16:00 49.59748 9.94462 20588 ft 373 kts 302°
2026-05-05 16:00 49.61197 9.91239 20328 ft 369 kts 302°
2026-05-05 16:01 49.62652 9.87987 19958 ft 369 kts 302°
2026-05-05 16:01 49.64130 9.84675 19383 ft 369 kts 302°
2026-05-05 16:01 49.65560 9.81473 18790 ft 366 kts 302°
2026-05-05 16:01 49.67019 9.78222 18198 ft 361 kts 302°
2026-05-05 16:02 49.68427 9.75062 17549 ft 353 kts 302°
2026-05-05 16:02 49.69788 9.72003 16887 ft 347 kts 302°
2026-05-05 16:02 49.71159 9.68911 16233 ft 343 kts 302°
2026-05-05 16:02 49.72493 9.65907 15843 ft 342 kts 302°
2026-05-05 16:03 49.73853 9.62847 15584 ft 340 kts 302°
2026-05-05 16:03 49.75193 9.59837 15224 ft 339 kts 302°
2026-05-05 16:03 49.76529 9.56832 14733 ft 337 kts 302°
2026-05-05 16:03 49.77834 9.53878 14252 ft 329 kts 302°
2026-05-05 16:04 49.79114 9.50993 13785 ft 322 kts 302°
2026-05-05 16:04 49.80371 9.48159 13279 ft 317 kts 302°
2026-05-05 16:04 49.81609 9.45351 12743 ft 315 kts 302°
2026-05-05 16:04 49.82845 9.42528 12253 ft 319 kts 302°
2026-05-05 16:05 49.84099 9.39668 11728 ft 322 kts 302°
2026-05-05 16:05 49.85366 9.36782 11229 ft 325 kts 301°
2026-05-05 16:05 49.86393 9.33700 10888 ft 318 kts 289°
2026-05-05 16:05 49.87068 9.30516 10832 ft 304 kts 284°
2026-05-05 16:06 49.87871 9.27510 10829 ft 303 kts 301°
2026-05-05 16:06 49.89310 9.25126 10835 ft 306 kts 324°
2026-05-05 16:06 49.91246 9.23775 10836 ft 308 kts 348°
2026-05-05 16:06 49.93369 9.23672 10836 ft 307 kts 11°
2026-05-05 16:07 49.95402 9.24673 10760 ft 307 kts 24°
2026-05-05 16:07 49.97369 9.25960 10426 ft 306 kts 24°
2026-05-05 16:07 49.99329 9.27248 10092 ft 306 kts 24°
2026-05-05 16:07 50.01287 9.28526 9752 ft 304 kts 24°
2026-05-05 16:08 50.03233 9.29784 9386 ft 302 kts 23°
2026-05-05 16:08 50.05169 9.31027 9011 ft 300 kts 21°
2026-05-05 16:08 50.07191 9.31618 8640 ft 296 kts 356°
2026-05-05 16:08 50.09174 9.30900 8288 ft 292 kts 339°
2026-05-05 16:09 50.11012 9.29617 7928 ft 288 kts 323°
2026-05-05 16:09 50.12367 9.27393 7580 ft 282 kts 301°
2026-05-05 16:09 50.13278 9.24709 7234 ft 280 kts 294°
2026-05-05 16:09 50.14132 9.21997 6888 ft 278 kts 294°
2026-05-05 16:10 50.14981 9.19298 6540 ft 276 kts 294°
2026-05-05 16:10 50.15829 9.16623 6198 ft 274 kts 294°
2026-05-05 16:10 50.16659 9.13953 5835 ft 271 kts 288°
2026-05-05 16:10 50.17068 9.11124 5478 ft 266 kts 274°
2026-05-05 16:11 50.17221 9.08251 5133 ft 264 kts 265°
2026-05-05 16:11 50.15630 9.00152 4995 ft 262 kts 248°
2026-05-05 16:12 50.15008 8.97494 4993 ft 261 kts 248°
2026-05-05 16:12 50.13759 8.92166 4997 ft 261 kts 248°
2026-05-05 16:13 50.12052 8.84883 4841 ft 220 kts 248°
2026-05-05 16:13 50.11539 8.82703 4560 ft 209 kts 249°
2026-05-05 16:13 50.11048 8.80620 4266 ft 201 kts 248°
2026-05-05 16:14 50.10120 8.76688 3736 ft 186 kts 248°
2026-05-05 16:14 50.09241 8.72971 3199 ft 180 kts 248°
2026-05-05 16:15 50.08377 8.69330 2690 ft 179 kts 249°
2026-05-05 16:15 50.07542 8.65807 2192 ft 161 kts 249°
2026-05-05 16:16 50.06822 8.62774 1768 ft 141 kts 248°
2026-05-05 16:16 50.06145 8.59952 1414 ft 138 kts 246°
2026-05-05 16:17 50.05589 8.57027 990 ft 141 kts 251°
2026-05-05 16:17 50.05283 8.55615 817 ft 134 kts 239°
2026-05-05 16:18 50.04484 8.52943 368 ft 132 kts 244°
2026-05-05 16:18 50.04216 8.51863 337 ft 68 kts 251°
2026-05-05 16:18 50.03935 8.50954 325 ft 34 kts 221°
2026-05-05 16:19 50.03804 8.50855 328 ft 17 kts 159°
2026-05-05 16:19 50.03798 8.50979 333 ft 10 kts 66°
2026-05-05 16:19 50.03876 8.51311 335 ft 32 kts 71°
2026-05-05 16:20 50.04036 8.51991 338 ft 34 kts 69°
2026-05-05 16:20 50.04203 8.52690 353 ft 34 kts 70°
2026-05-05 16:21 50.04370 8.53383 371 ft 31 kts 69°
2026-05-05 16:22 50.04452 8.54389 372 ft 30 kts 85°
2026-05-05 16:22 50.04336 8.54751 362 ft 0 kts 147°
2026-05-05 16:23 50.04335 8.54752 362 ft 1 kts 147°
2026-05-05 16:23 50.04204 8.54833 357 ft 20 kts 161°
2026-05-05 16:24 50.04063 8.54914 357 ft 21 kts 159°
2026-05-05 16:24 50.03943 8.54985 356 ft 14 kts 160°
2026-05-05 16:24 50.03909 8.55005 355 ft 0 kts 159°
2026-05-05 16:25 50.03908 8.55005 355 ft 1 kts 159°
2026-05-05 16:25 50.03864 8.55174 351 ft 17 kts 67°
2026-05-05 16:25 50.03902 8.55337 354 ft 16 kts 71°
2026-05-05 16:26 50.03974 8.55641 353 ft 15 kts 68°
2026-05-05 16:26 50.04016 8.55813 357 ft 0 kts 70°
2026-05-05 16:27 50.04019 8.55825 352 ft 4 kts 70°
2026-05-05 16:27 50.04036 8.55900 352 ft 11 kts 70°
2026-05-05 16:28 50.04084 8.55971 352 ft 9 kts
2026-05-05 16:28 50.04137 8.55946 359 ft 7 kts 341°
2026-05-05 16:28 50.04194 8.55916 354 ft 13 kts 348°
2026-05-05 16:28 50.04266 8.56045 356 ft 21 kts 73°
2026-05-05 16:29 50.04310 8.56252 357 ft 20 kts 72°
2026-05-05 16:29 50.04353 8.56418 358 ft 12 kts 69°
2026-05-05 16:29 50.04381 8.56536 361 ft 11 kts 70°
2026-05-05 16:29 50.04406 8.56645 362 ft 10 kts 72°
2026-05-05 16:30 50.04430 8.56741 362 ft 9 kts 68°
2026-05-05 16:30 50.04450 8.56824 363 ft 8 kts 69°
2026-05-05 16:30 50.04476 8.56930 362 ft 9 kts 69°
2026-05-05 16:30 50.04472 8.56995 358 ft 4 kts 139°
2026-05-05 16:31 50.04450 8.57003 358 ft 4 kts 170°
2026-05-05 16:31 50.04425 8.57013 362 ft 5 kts 163°
2026-05-05 16:31 50.04399 8.57027 361 ft 2 kts 160°
2026-05-05 16:31 50.04394 8.57030 362 ft 1 kts 159°